Tracking 30995 objects as of 5-Jul-2025
HD Live streaming from Space Station
objects crossing your sky now

COSMOS 252 DEB *

Track COSMOS 252 DEB * now!
10-day predictions


NORAD ID: 3901
Int'l Code: 1968-097BN
Perigee: 649.8 km
Apogee: 1,925.3 km
Inclination: 61.3 °
Period: 111.2 minutes
Semi major axis: 7658 km
RCS: 0.0068 m2 (small)
Launch date: November 1, 1968
Source: Commonwealth of Independent States (former USSR) (CIS)
Launch site: TYURATAM MISSILE AND SPACE COMPLEX (TTMTR)

Note: This is SATELLITE DEBRIS
Your satellite tracking list
FENGYUN 1C DEB
Track 1 satellite(s)




NASA's NSSDC Master Catalog

Two Line Element Set (TLE):
1 03901U 68097BN  25186.40381637  .00000750  00000-0  58873-3 0  9993
2 03901  61.2730 331.9900 0832738 103.7513 265.7485 12.95329606632607
Source of the keplerian elements: AFSPC